Tracking 18942 objects as of 17-Jan-2018
HD Live streaming from Space Station
objects crossing your sky now

FENGYUN 1C DEB

Track FENGYUN 1C DEB now!
10-day predictions


NORAD ID: 30868
Int'l Code: 1999-025AXE
Perigee: 768.0 km
Apogee: 967.7 km
Inclination: 98.3 °
Period: 102.2 minutes
Semi major axis: 7238 km
RCS: 0.0097 m2 (small)
Launch date: May 10, 1999
Source: People's Republic of China (PRC)
Launch site: Taiyaun Space Center, China (TSC)

Note: This is SATELLITE DEBRIS
aabbcc
Your satellite tracking list
Your tracking list is empty




NASA's NSSDC Master Catalog

Two Line Element Set (TLE):
1 30868U 99025AXE 18016.41378535 +.00000026 +00000-0 +34252-4 0  9990
2 30868 098.2930 092.8928 0137946 224.1943 196.2906 14.09620892560219
Source of the keplerian elements: AFSPC